DODECAPOLE 2

Satellite information

Favourite Embed

Satellite Type and Status

PAYLOADIN ORBIT

Key statistics

Satellite DODECAPOLE 2 at a glance.

Uptime

21982

Days in orbit

Revolutions

≈ 14.1

Per day

Orbit

SSO

Sun Synchronous Orbit

Inclination

90.1

Latest

Satellite identification and parameters

Extended collection of information and parameters for DODECAPOLE 2.

Object identification

Identified? True

Debris? False

Object name: DODECAPOLE 2

International designator: 1965-065C

Object number (NORAD): 1510

Object ID (CCSDS): 1510

Country: UNITED STATES OF AMERICA (US)

Current information (Y/N): Y

RCS size: LARGE

Orbital parameters

Period: 102.19 minutes

Inclination: 90.0626 deg

SMA: 7240.447 km

Apoapsis: 889.841 km

Periapsis: 834.784 km

RAAN: 23.3075 deg

Eccentricy: 0.00380208

Argument of periapsis: 231.6055 deg

Mean anomaly: 128.1713 deg

Mean motion: 14.09141702 rev/day

Mean motion (dot): 0.00006932 rev/day2

B* drag term: 0.0039602829 1/REarth

Two-line elements (TLE)

Creation date: Oct. 19, 2025, 2:20 a.m.

Reference frame: TEME

Reference center: EARTH

Epoch: Oct. 18, 2025, 10:57 p.m. UTC

TLE line 0: 0 DODECAPOLE 2

TLE line 1: 1 01510U 65065C 25291.95646619 .00006932 00000-0 39603-2 0 9997

TLE line 2: 2 01510 90.0626 23.3075 0038021 231.6055 128.1713 14.09141702999175

Live tracking on map

Real-time ground track for satellite DODECAPOLE 2.

In-orbit conjunctions

A list of the most updated potential collisions computed for object DODECAPOLE 2.

Target Orbit TCA Probability of collision Miss distance Type
CZ-6A DEB LEO 2025-10-13 04:28:41 0.000109866 198.0 (m) DEBRIS
FENGYUN 1C DEB SSO 2025-08-10 21:37:04 0.0001834155 478.0 (m) DEBRIS
THORAD AGENA D DEB SSO 2025-06-08 07:39:18 0.0002301713 587.0 (m) DEBRIS
NOAA 13 SSO 2025-06-02 01:13:27 0.0002238879 801.0 (m) PAYLOAD
CZ-6A DEB LEO 2025-05-06 11:21:26 0.0005669549 806.0 (m) DEBRIS

Associated space launch

The Transit-O series of satellites that closely followed the design of Transit 5C-1 were also called “Oscars” (Oscar is the phonetic alphabet for “O”, i. e., operational). They were also called NNS (Navy Navigation Satellite) or shortened NavSat.

DODECAPOLE 2 was lifted into orbit during the mission ‘Thor DM-21 Ablestar | Transit-O 5’, on board a Thor DM-21 Ablestar space rocket.

The launch took place on Aug. 13, 1965, 10:11 p.m. from Space Launch Complex 2E.

For more information about the launch, click the button.

Launch to space Thor DM-21 Ablestar | Transit-O 5
Thor DM-21 Ablestar | Transit-O 5

Agency: N/A

Status: Launch Successful

Launch date: Aug. 13, 1965, 10:11 p.m. UTC

Rocket: Thor DM-21 Ablestar

Launch pad: Space Launch Complex 2E

Location: Vandenberg SFB, CA, USA

...

Latest news about this satellite

There are no fresh news available about this satellite. Check back as we update our databases every day.


Newsletter sign-up

Weekly statistics, charts and insights to help you stay on top of the space industry.